EW5609 Weather Reports


Display with metric or nautical units.
time (UTC)temp
F
wind
direction
speed
MPH
gust
MPH
rain 1hr
in
rain 24hr
in
rain mn
in
humidity
%
barometer
mb
20260506123734 53 154 0.0 0.0 0.07 0.14 0.11 93 1006.5
20260506123235 53 153 0.0 0.0 0.06 0.13 0.10 93 1006.3
20260506122727 53 153 0.0 0.0 0.05 0.12 0.09 93 1006.2
20260506122228 53 153 0.0 0.0 0.04 0.10 0.08 93 1006.3
20260506121723 53 153 0.0 0.0 0.03 0.09 0.06 93 1006.3
20260506121444 53 153 0.0 0.0 0.03 0.09 0.06 93 1006.2
20260506120932 53 153 0.0 0.0 0.02 0.08 0.05 93 1006.1
20260506120210 53 153 0.0 0.0 0.02 0.08 0.05 93 1006.1
20260506115703 53 153 0.0 0.0 0.02 0.08 0.05 93 1006.0
20260506115204 53 182 0.0 0.0 0.02 0.08 0.05 93 1006.0
20260506114627 53 196 0.0 0.0 0.02 0.08 0.05 93 1006.2
20260506114057 53 205 0.0 0.0 0.01 0.07 0.04 92 1006.5
20260506113534 53 205 0.0 0.0 0.01 0.07 0.04 92 1006.7
20260506113006 53 205 0.0 0.0 0.01 0.07 0.04 92 1006.7
20260506112438 53 205 0.0 0.0 0.00 0.06 0.03 92 1006.7
20260506111913 52 205 0.0 0.0 0.00 0.07 0.03 92 1006.6
20260506111349 52 205 0.0 0.0 0.01 0.07 0.03 92 1006.6
20260506111049 52 205 0.0 0.0 0.01 0.07 0.03 92 1006.7
20260506110256 52 205 0.0 0.0 0.01 0.07 0.03 92 1006.7
20260506105739 53 205 0.0 0.0 0.01 0.07 0.03 92 1006.5
20260506105238 53 205 0.0 0.0 0.01 0.07 0.03 92 1006.5
20260506104931 53 205 0.0 0.0 0.01 0.07 0.03 92 1006.5
20260506104634 53 205 0.0 0.0 0.01 0.07 0.03 91 1006.4
20260506103616 53 205 0.0 0.0 0.01 0.07 0.03 91 1006.4
20260506103047 53 205 0.0 0.0 0.01 0.07 0.03 91 1006.5
20260506102520 53 205 0.0 0.0 0.01 0.07 0.03 91 1006.5
20260506102430 53 205 0.0 0.0 0.01 0.07 0.03 91 1006.5
20260506101425 53 205 0.0 0.0 0.00 0.06 0.02 91 1006.3
20260506100900 53 205 0.0 0.0 0.00 0.06 0.02 91 1006.2
20260506100333 53 205 0.0 0.0 0.00 0.06 0.02 91 1006.2
20260506095805 53 205 0.0 0.0 0.01 0.06 0.02 91 1006.2
20260506095238 53 205 0.0 0.0 0.01 0.06 0.02 90 1006.1
20260506094739 53 205 0.0 0.0 0.01 0.06 0.02 90 1006.2
20260506094240 53 205 0.0 0.0 0.01 0.06 0.02 90 1006.2
20260506093737 53 205 0.0 0.0 0.01 0.06 0.02 90 1006.2
20260506093235 53 205 0.0 0.0 0.01 0.06 0.02 90 1006.2
20260506092735 53 205 0.0 0.0 0.02 0.06 0.02 90 1006.3
20260506092234 53 205 0.0 0.0 0.02 0.06 0.02 90 1006.3
20260506091727 53 205 0.0 0.0 0.02 0.06 0.02 90 1006.3
20260506091226 53 205 0.0 0.0 0.02 0.06 0.02 90 1006.3
20260506090723 53 205 0.0 0.0 0.02 0.06 0.02 90 1006.4
20260506090441 53 205 0.0 0.0 0.01 0.05 0.01 90 1006.5
20260506085720 53 205 0.0 0.0 0.01 0.05 0.01 90 1006.5
20260506085217 53 205 0.0 0.0 0.01 0.05 0.01 89 1006.6
20260506084717 53 205 0.0 0.0 0.01 0.05 0.01 89 1006.6
20260506084442 53 205 0.0 0.0 0.01 0.05 0.01 89 1006.8
20260506083934 53 205 0.0 0.0 0.01 0.05 0.01 89 1006.8
20260506083437 53 205 0.0 0.0 0.01 0.05 0.01 89 1006.9
20260506082914 53 205 0.0 0.0 0.00 0.04 0.00 89 1007.1
20260506082419 53 205 0.0 0.0 0.00 0.04 0.00 89 1007.1
20260506081649 53 205 0.0 0.0 0.00 0.04 0.00 88 1007.1
20260506081147 53 205 0.0 0.0 0.00 0.04 0.00 89 1007.1
20260506080911 53 205 0.0 0.0 0.00 0.04 0.00 88 1006.9
20260506080143 53 205 0.0 0.0 0.00 0.04 0.00 88 1006.8
20260506073135 53 205 0.0 0.0 0.00 0.04 0.00 88 1006.7
20260506072632 53 205 0.0 0.0 0.00 0.04 0.00 87 1007.1
20260506072133 53 205 0.0 0.0 0.00 0.04 0.00 87 1006.9
20260506071633 53 205 0.0 0.0 0.00 0.04 0.00 87 1006.8
20260506071128 53 205 0.0 0.0 0.00 0.04 0.00 87 1006.8
20260506070626 53 205 0.0 0.0 0.00 0.04 0.00 87 1006.8
20260506070123 53 205 0.0 0.0 0.00 0.04 0.00 87 1006.8
20260506062024 54 205 0.0 0.0 0.00 0.04 0.00 87 1007.3
20260506061522 54 205 0.0 0.0 0.00 0.04 0.00 87 1007.5
20260506061021 54 205 0.0 0.0 0.00 0.04 0.00 87 1007.6
20260506060520 54 205 0.0 0.0 0.00 0.04 0.00 87 1007.6
20260506050935 54 0 0.0 0.0 0.00 0.04 0.00 85 1008.4
20260506050434 54 312 0.0 0.0 0.00 0.04 0.00 85 1008.3
20260506044917 55 311 0.0 0.0 0.00 0.04 0.00 83 1008.6
20260506044419 55 311 0.0 0.0 0.00 0.04 0.00 83 1008.6
20260506043919 55 311 0.0 0.0 0.00 0.04 0.00 83 1008.6
20260506043420 55 311 0.0 0.0 0.00 0.04 0.00 83 1008.6
20260506042855 55 311 0.0 0.0 0.00 0.04 0.00 83 1008.7
20260506042328 55 311 0.0 0.0 0.00 0.04 0.00 82 1008.6
20260506041812 56 311 0.0 0.0 0.00 0.04 0.00 82 1008.7
20260506041542 56 312 0.0 0.0 0.00 0.04 0.00 82 1008.6
20260506040811 56 0 0.0 0.0 0.00 0.04 0.00 82 1008.6
20260506040309 56 0 0.0 0.0 0.00 0.04 0.00 81 1008.7
20260506035810 56 0 0.0 0.0 0.00 0.04 0.04 81 1008.8
20260506035310 56 0 0.0 0.0 0.00 0.04 0.04 81 1008.9
20260506035031 56 0 0.0 0.0 0.00 0.04 0.04 81 1008.9
20260506034305 56 312 0.0 0.0 0.00 0.04 0.04 80 1008.9
20260506034030 57 312 0.0 0.0 0.00 0.04 0.04 80 1008.9
20260506033306 57 312 0.0 0.0 0.00 0.04 0.04 80 1009.1
20260506033243 57 312 0.0 0.0 0.00 0.04 0.04 80 1009.3
20260506032258 58 0 0.0 0.0 0.00 0.04 0.04 81 1009.4
20260506031755 58 0 0.0 0.0 0.00 0.04 0.04 81 1009.3
20260506031255 58 0 0.0 0.0 0.00 0.04 0.04 81 1009.3
20260506030756 58 311 0.0 0.0 0.00 0.04 0.04 82 1009.1
20260506030253 59 349 0.0 0.0 0.00 0.04 0.04 83 1008.9
20260506025754 59 13 0.0 0.0 0.00 0.04 0.04 83 1009.2
20260506025724 59 0 0.0 0.0 0.00 0.04 0.04 83 1009.1
20260506024741 59 0 0.0 0.0 0.00 0.04 0.04 83 1008.9
20260506024458 59 0 0.0 3.0 0.00 0.04 0.04 83 1008.8
20260506024004 59 0 0.0 5.0 0.00 0.04 0.04 83 1008.9
20260506023456 60 286 0.0 5.0 0.00 0.04 0.04 83 1009.0
20260506022735 60 0 0.0 0.0 0.00 0.04 0.04 83 1009.0
20260506022234 60 301 0.0 0.0 0.00 0.04 0.04 84 1008.9
20260506021732 61 0 0.0 0.0 0.00 0.04 0.04 84 1008.7
20260506021457 61 0 0.0 0.0 0.00 0.04 0.04 84 1008.7
20260506020732 61 0 0.0 0.0 0.00 0.04 0.04 84 1008.8
20260506020230 61 0 0.0 0.0 0.00 0.04 0.04 85 1008.7
20260506015950 61 0 0.0 0.0 0.00 0.04 0.04 85 1008.6
20260506015438 61 0 0.0 0.0 0.00 0.04 0.04 85 1008.4
20260506014720 61 0 0.0 0.0 0.00 0.04 0.04 85 1008.3
20260506014220 61 312 0.0 0.0 0.00 0.04 0.04 86 1008.5
20260506013930 61 0 0.0 0.0 0.00 0.04 0.04 86 1008.4
20260506013434 61 0 0.0 0.0 0.00 0.04 0.04 86 1008.2
20260506012709 62 309 0.0 0.0 0.00 0.04 0.04 86 1008.1
20260506012208 62 309 0.0 0.0 0.00 0.04 0.04 86 1007.9
20260506011710 62 309 0.0 0.0 0.00 0.04 0.04 86 1007.9
20260506011206 62 0 0.0 0.0 0.00 0.04 0.04 86 1007.9
20260506010705 62 0 0.0 0.0 0.00 0.04 0.04 86 1007.7
20260506010202 62 306 0.0 0.0 0.00 0.04 0.04 86 1007.7
20260506005701 62 283 0.0 0.0 0.00 0.04 0.04 85 1007.7
20260506005425 62 283 0.0 0.0 0.00 0.04 0.04 85 1007.4
20260506004701 62 283 0.0 0.0 0.00 0.04 0.04 85 1007.2
20260506004201 62 283 0.0 0.0 0.00 0.04 0.04 84 1006.9
20260506003920 62 283 0.0 0.0 0.00 0.04 0.04 84 1006.8
20260506003159 62 283 0.0 0.0 0.00 0.04 0.04 84 1006.8
20260506002658 63 283 0.0 0.0 0.00 0.04 0.04 83 1006.8
20260506002151 63 283 0.0 0.0 0.00 0.04 0.04 82 1006.8
20260506001650 64 283 0.0 0.0 0.00 0.04 0.04 81 1006.7
20260506001147 64 283 0.0 0.0 0.00 0.04 0.04 81 1006.8
20260506000648 64 283 0.0 0.0 0.00 0.04 0.04 81 1006.8
20260506000134 64 283 0.0 0.0 0.00 0.04 0.04 81 1006.7
20260505235632 65 283 0.0 0.0 0.00 0.04 0.04 81 1006.5
20260505235105 65 283 0.0 0.0 0.00 0.04 0.04 80 1006.6
20260505234604 65 283 0.0 0.0 0.00 0.04 0.04 80 1006.7
20260505234101 65 283 0.0 0.0 0.00 0.04 0.04 79 1006.7
20260505233602 65 283 0.0 0.0 0.00 0.04 0.04 79 1006.7
20260505233056 65 283 0.0 0.0 0.00 0.04 0.04 79 1006.8
20260505232556 65 283 0.0 0.0 0.00 0.04 0.04 79 1006.7
20260505232056 65 283 0.0 0.0 0.00 0.04 0.04 79 1006.7
20260505231553 65 283 0.0 0.0 0.00 0.04 0.04 79 1006.7
20260505231052 66 283 0.0 0.0 0.00 0.04 0.04 79 1006.7
20260505230552 65 283 0.0 0.0 0.00 0.04 0.04 78 1006.7
20260505230048 65 283 0.0 0.0 0.00 0.04 0.04 78 1006.6
20260505225549 66 283 0.0 0.0 0.00 0.04 0.04 78 1006.6
20260505225050 66 283 0.0 0.0 0.00 0.04 0.04 78 1006.6
20260505224529 66 283 0.0 0.0 0.00 0.04 0.04 78 1006.5
20260505224024 66 283 0.0 0.0 0.00 0.04 0.04 78 1006.5
20260505223522 66 283 0.0 0.0 0.00 0.04 0.04 78 1006.4
20260505223252 66 283 0.0 0.0 0.00 0.04 0.04 78 1006.4
20260505222515 66 283 0.0 0.0 0.00 0.04 0.04 78 1006.4
20260505222240 66 283 0.0 0.0 0.00 0.04 0.04 77 1006.3
20260505221507 67 283 0.0 0.0 0.00 0.04 0.04 77 1006.3
20260505221008 67 253 0.0 0.0 0.00 0.04 0.04 77 1006.6
20260505220504 67 271 0.0 0.0 0.00 0.04 0.04 77 1006.5
20260505220004 67 173 0.0 0.0 0.00 0.04 0.04 78 1006.6
20260505215720 67 173 0.0 0.0 0.00 0.04 0.04 78 1006.4
20260505214955 67 147 0.0 0.0 0.00 0.04 0.04 78 1005.9
20260505214451 67 147 0.0 0.0 0.00 0.04 0.04 77 1005.7
20260505213950 67 147 0.0 0.0 0.00 0.04 0.04 78 1005.8
20260505213448 67 147 0.0 0.0 0.00 0.04 0.04 78 1005.9
20260505212948 67 146 0.0 0.0 0.00 0.04 0.04 78 1005.7
20260505212436 66 140 0.0 0.0 0.00 0.04 0.04 78 1005.7
20260505211933 66 140 0.0 0.0 0.00 0.04 0.04 79 1005.7
20260505211404 66 140 0.0 0.0 0.00 0.04 0.04 80 1005.7
20260505211120 66 140 0.0 0.0 0.00 0.04 0.04 79 1005.8
20260505210359 65 140 0.0 0.0 0.00 0.04 0.04 80 1005.7
20260505205858 65 159 0.0 0.0 0.00 0.04 0.04 80 1005.7
20260505205622 65 159 0.0 0.0 0.00 0.04 0.04 81 1005.8
20260505204854 65 159 0.0 0.0 0.00 0.04 0.04 82 1005.9
20260505204356 65 249 0.0 0.0 0.01 0.04 0.04 82 1006.0
20260505203853 65 250 0.0 0.0 0.01 0.04 0.04 81 1006.0
20260505203608 65 250 0.0 0.0 0.02 0.04 0.04 81 1006.2
20260505202852 65 250 0.0 0.0 0.02 0.04 0.04 82 1006.2
20260505202345 65 250 0.0 0.0 0.02 0.04 0.04 81 1006.3
20260505201844 65 250 0.0 0.0 0.02 0.04 0.04 79 1006.4
20260505201341 65 251 0.0 0.0 0.02 0.04 0.04 78 1006.3
20260505200839 65 251 0.0 0.0 0.02 0.04 0.04 77 1006.3
20260505200338 66 251 0.0 0.0 0.02 0.04 0.04 75 1006.3
20260505195839 66 251 0.0 1.0 0.02 0.04 0.04 74 1006.0
20260505195339 67 251 0.0 1.0 0.02 0.04 0.04 72 1006.1
20260505195059 68 269 0.0 9.0 0.02 0.04 0.04 68 1006.2
20260505194331 71 283 3.0 20.0 0.01 0.03 0.04 62 1006.5
20260505193829 75 286 3.0 20.0 0.00 0.02 0.02 53 1006.6
20260505193328 77 242 1.0 11.0 0.00 0.02 0.02 38 1005.5
20260505192829 78 0 1.0 8.0 0.00 0.02 0.02 35 1004.9
20260505192557 78 0 0.0 13.0 0.00 0.02 0.02 35 1004.4
20260505192315 78 257 1.0 13.0 0.00 0.02 0.02 34 1004.2
20260505191328 79 255 2.0 13.0 0.00 0.02 0.02 33 1004.2
20260505190825 80 266 2.0 14.0 0.00 0.02 0.02 33 1004.4
20260505190323 80 243 1.0 14.0 0.00 0.02 0.02 34 1004.3
20260505185825 80 284 1.0 12.0 0.00 0.02 0.02 38 1004.1
20260505185551 79 261 2.0 12.0 0.00 0.02 0.02 36 1004.1
20260505184823 80 240 1.0 11.0 0.00 0.02 0.02 38 1004.4
20260505184308 79 256 1.0 11.0 0.00 0.02 0.02 39 1004.4
20260505183808 78 128 0.0 11.0 0.00 0.02 0.02 43 1004.7
20260505183308 78 129 0.0 7.0 0.00 0.02 0.02 42 1004.7
20260505182808 77 268 0.0 2.0 0.00 0.02 0.02 48 1004.7
20260505182307 77 241 0.0 1.0 0.00 0.02 0.02 50 1004.9
20260505182034 76 0 0.0 3.0 0.00 0.02 0.02 50 1005.0
20260505181305 75 286 0.0 3.0 0.00 0.02 0.02 51 1005.2
20260505180803 75 0 0.0 1.0 0.00 0.02 0.02 56 1005.2
20260505180529 74 271 0.0 1.0 0.00 0.02 0.02 59 1005.4
20260505175759 73 261 0.0 3.0 0.00 0.02 0.02 60 1005.5
20260505175301 73 0 0.0 9.0 0.00 0.02 0.02 61 1005.8
20260505174754 76 273 0.0 9.0 0.00 0.02 0.02 51 1005.9
20260505174252 76 239 1.0 11.0 0.00 0.02 0.02 47 1005.8
20260505174019 76 275 1.0 11.0 0.00 0.02 0.02 46 1005.8
20260505173252 76 248 1.0 9.0 0.00 0.02 0.02 45 1005.8
20260505172948 76 283 0.0 1.0 0.00 0.02 0.02 46 1005.8
20260505172222 76 256 0.0 1.0 0.00 0.02 0.02 48 1005.9
20260505171720 76 248 0.0 6.0 0.00 0.02 0.02 47 1005.8
20260505171219 76 259 1.0 12.0 0.00 0.02 0.02 46 1005.8
20260505170717 76 288 1.0 12.0 0.00 0.02 0.02 47 1005.7
20260505170218 77 246 0.0 0.0 0.00 0.02 0.02 46 1005.6
20260505165719 77 157 1.0 14.0 0.00 0.02 0.02 47 1005.5
20260505165218 77 283 1.0 14.0 0.00 0.02 0.02 46 1005.3
20260505164718 76 0 1.0 12.0 0.00 0.02 0.02 46 1005.4
20260505164214 78 202 1.0 10.0 0.00 0.02 0.02 43 1005.3
20260505163712 78 279 0.0 6.0 0.00 0.02 0.02 45 1005.4
20260505163212 78 247 0.0 4.0 0.00 0.02 0.02 44 1005.4
20260505162711 77 254 0.0 3.0 0.00 0.02 0.02 44 1005.5
20260505162204 77 245 0.0 3.0 0.00 0.02 0.02 43 1005.7
20260505161701 78 0 0.0 2.0 0.00 0.02 0.02 44 1005.7
20260505161202 78 257 0.0 2.0 0.00 0.02 0.02 43 1005.8
20260505160704 79 144 0.0 1.0 0.00 0.02 0.02 43 1005.8
20260505160330 79 276 0.0 12.0 0.00 0.02 0.02 42 1006.0
20260505160213 79 245 0.0 12.0 0.00 0.02 0.02 42 1005.9
20260505152855 78 250 2.0 9.0 0.00 0.02 0.02 42 1005.9
20260505152545 78 256 1.0 14.0 0.00 0.02 0.02 43 1005.9
20260505151804 77 284 0.0 7.0 0.00 0.02 0.02 43 1005.9
20260505151241 77 262 1.0 7.0 0.00 0.02 0.02 45 1006.0
20260505150714 76 257 1.0 8.0 0.00 0.02 0.02 44 1005.9
20260505150150 76 242 0.0 5.0 0.00 0.02 0.02 45 1006.0
20260505140318 73 247 1.0 12.0 0.01 0.02 0.02 50 1006.1
20260505130257 66 257 0.0 8.0 0.00 0.01 0.01 66 1006.9
20260505124756 63 274 0.0 0.0 0.00 0.01 0.01 70 1007.2
20260505124256 62 259 0.0 0.0 0.00 0.01 0.01 71 1007.2
20260505124008 62 261 0.0 0.0 0.00 0.01 0.01 72 1007.3